Вернуться в каталог

LUOJIA-4 01

АктивенНаукаSSO
NORAD 61229·PAYLOAD·🇨🇳 China
Это название спутника еще не подтверждено официальными источниками.

Запущен Sep 24, 2024 с Yellow Sea Launch Area

Loading…

Ближайшие Пролёты (ближайшие 24 часа)

TLE

СвежийSource: Space-Track

Эпоха: Sep 14, 2026, 22:39 UTC

1 61229U 24173C   26257.94427764  .00042569  00000-0  62854-3 0  9996
2 61229  97.3373 342.5471 0009321 165.6630 194.4890 15.55190836110653

Отслеживайте LUOJIA-4 01 в реальном времени с AllMySat

Download on the App Store